Regional Weather Roundup
Issued by NWS

Home | Current Version | Previous Version | Text Only | Print | Product List | Glossary Off
Versions: 1 2 3 4 5 6 7 8 9 10 11 12 13 14 15 16 17 18 19 20 21 22 23 24 25 26 27 28 29 30 31 32 33 34 35 36 37 38 39 40 41 42 43 44 45 46 47 48 49 50

000
ASUS43 KDTX 300510
RWRMI
MICHIGAN HOURLY REGIONAL WEATHER ROUNDUP
NATIONAL WEATHER SERVICE DETROIT/PONTIAC MI
100 AM EDT SUN APR 30 2017

NOTE: "FAIR" INDICATES FEW OR NO CLOUDS BELOW 12,000 FEET WITH NO
SIGNIFICANT WEATHER AND/OR OBSTRUCTION TO VISIBILITY.

MIZ047>049-052>055-059>063-066>070-074>076-081>083-300600-
SOUTHEAST LOWER MICHIGAN

CITY           SKY/WX    TMP DP  RH WIND       PRES   REMARKS
ADRIAN         CLOUDY    44  31  60 E16       30.07F
ALMA           LGT SNOW  41  37  87 NE14      30.14R
ANN ARBOR      CLOUDY    44  30  57 NE13G24   30.10F
BAD AXE        CLOUDY    42  31  64 NE9       30.24F
CARO           CLOUDY    43  32  66 NE10G20   30.13F
DETROIT CITY   CLOUDY    44  35  70 NE17G24   30.12F
DETROIT        TSTM      43  35  73 NE12G20   30.11F
FLINT          CLOUDY    43  31  62 E16G24    30.14F
GROSSE ILE     LGT RAIN  43  36  76 NE10G22   30.15R
HILLSDALE      LGT RAIN  43  32  65 E18G25    30.03F
HOWELL         LGT RAIN  41  32  70 NE6       30.12R

CITY           SKY/WX    TMP DP  RH WIND       PRES   REMARKS
JACKSON        TSTM      44  34  67 NE9       30.06F
LAMBERTVILLE   LGT RAIN  42  39  88 E8G17     30.07F
LANSING        TSTM      43  34  70 E17       30.10F
LAPEER         CLOUDY    42  32  67 E9        30.15F
MASON          RAIN      44  33  64 E10G24    30.11R
MONROE         HVY RAIN  41  37  86 NE18G26   30.05F
MT. CLEMENS    CLOUDY    43  35  73 NE17G23   30.14F
PONTIAC        CLOUDY    42  30  62 NE12G22   30.13F
PORT HOPE        N/A     43  36  76 NE14      30.25F
PORT HURON     CLOUDY    41  34  75 NE12      30.17F
TRI CITIES     CLOUDY    44  37  76 NE16      30.16F
MIDLAND        MOCLDY    44  35  71 NE14G23   30.13F
TROY           CLOUDY    43  29  58 NE12G20   30.17R
SAGINAW HB     CLOUDY    41  32  70 NE13      30.16F
$$
MIZ043>046-050>051-056>058-064>065-071>073-077>080-300600-
SOUTHWEST LOWER MICHIGAN

CITY           SKY/WX    TMP DP  RH WIND       PRES   REMARKS
BATTLE CREEK   RAIN      43  38  82 E5        30.11R
BENTON HARBOR  CLOUDY    47  40  76 E22G35    29.99F
BIG RAPIDS     FLURRIES  41  34  77 E13G18    30.15S
COLDWATER      HVY RAIN  42  38  87 SE7G24    30.13R
FREMONT        LGT RAIN  41  37  84 E20G26    30.06F
HOLLAND        RAIN      43  39  86 E20G28    30.07R
GRAND RAPIDS   HVY RAIN  41  41 100 E20G26    30.08F FOG
IONIA          RAIN      40  37  87 NE15      30.12R WCI  32
KALAMAZOO      RAIN      43  38  82 E6        30.08R
LUDINGTON      LGT RAIN  41  39  93 E15       30.10F
MARSHALL       RAIN      42  36  78 E7        30.08R
MOUNT PLEASANT LGT RAIN  42  35  76 E6        30.16F
MUSKEGON       RAIN      42  39  89 E17G26    30.06F FOG
SOUTH HAVEN    CLOUDY    43  40  89 E21G30    30.01F
$$
MIZ016>042-300600-
NORTHERN LOWER MICHIGAN

CITY           SKY/WX    TMP DP  RH WIND       PRES   REMARKS
ALPENA         CLOUDY    45  32  60 E6        30.30R
BEAVER ISLAND  CLOUDY    39  28  65 NE6       30.27F WCI  35
BELLAIRE       CLOUDY    45  29  54 NE6       30.23F
CADILLAC       LGT RAIN  40  36  87 E14       30.15F WCI  32
CHARLEVOIX     CLOUDY    43  28  56 NE7       30.28F
FRANKFORT      LGT RAIN  43  32  65 E3        30.18F
GAYLORD        CLOUDY    43  27  53 E9        30.23F
GRAYLING       LGT RAIN  43  30  60 E12       30.23F
HARBOR SPRINGS CLOUDY    40  27  59 NE7       30.27S
HOUGHTON LAKE  CLOUDY    41  37  86 NE10      30.21F
MANISTEE       LGT RAIN  41  37  86 E9        30.13F
OSCODA         CLOUDY    45  33  62 NE10      30.27F
PELLSTON       CLOUDY    40  27  59 NE5       30.29S
ROGERS CITY    CLOUDY    40  32  71 CALM      30.30S
TRAVERSE CITY  LGT RAIN  44  34  67 NE5       30.19F
$$
MIZ007>008-015-300600-
EASTERN UPPER MICHIGAN

CITY           SKY/WX    TMP DP  RH WIND       PRES   REMARKS
KINROSS        CLOUDY    37  29  72 N8        30.30S WCI  31
MACKINAC ISLAN CLOUDY    38  30  71 NE7       30.29S WCI  33
NEWBERRY       PTCLDY    33  30  88 NE5       30.28F WCI  29
S. S. MARIE    CLOUDY    40  30  67 CALM      30.30F
MUNISING         N/A     37  31  78 N7        30.28F WCI  32
$$
MIZ004>006-011>014-085-300600-
CENTRAL UPPER MICHIGAN

CITY           SKY/WX    TMP DP  RH WIND       PRES   REMARKS
MANISTIQUE     CLOUDY    36  28  74 NE7       30.26F WCI  30
ESCANABA       CLOUDY    37  26  64 NE8G18    30.26F WCI  31
MENOMINEE      CLOUDY    40  26  57 NE14      30.23F WCI  32
SAWYER-GWINN   CLOUDY    33  26  77 NE12      30.28F WCI  24
$$
MIZ001>003-009>011-084-300600-
WESTERN UPPER MICHIGAN

CITY           SKY/WX    TMP DP  RH WIND       PRES   REMARKS
IRON MOUNTAIN  PTCLDY    37  20  50 VRB5      30.25F WCI  33
HOUGHTON       MOCLDY    32  24  72 CALM      30.30F
COPPER HARBOR    N/A     33  23  66 W6        30.33S WCI  28
IRONWOOD       CLOUDY    35  19  52 E6        30.29F WCI  30
$$

ABBREVIATIONS USED IN REMARKS
   TC - TEMPERATURE IN CELSIUS
  WCI - WIND CHILL INDEX
   HX - HEAT INDEX
  VSB - VISIBILITY




USA.gov is the U.S. government's official web portal to all federal, state and local government web resources and services.